カタログに戻る

ORBCOMM FM 14

運用中通信LEO
NORAD 25419·PAYLOAD·🇺🇸 United States

打ち上げ Aug 2, 1998 から Cape Canaveral Space Force Station

Loading…

次のパス (今後24時間)

TLE

最新Source: Space-Track

元期: Sep 14, 2026, 03:26 UTC

1 25419U 98046G   26257.14322735  .00000830  00000-0  30424-3 0  9994
2 25419  44.9946 177.8244 0003805  26.3499 333.7543 14.40287559469632

AllMySatでORBCOMM FM 14をリアルタイム追跡

Download on the App Store